Voltar ao catálogo

FENGYUN 1C DEB

AtivoSSO
NORAD 38138·DEBRIS·🇨🇳 China

Lançado May 10, 1999 de Taiyuan Satellite Launch Center

Loading…

Próximas Passagens (próximas 24 horas)

TLE

EnvelhecendoSource: Space-Track

Época: Sep 6, 2026, 12:36 UTC

1 38138U 99025EQK 26249.52509070  .00002500  00000-0  82193-3 0  9992
2 38138  98.8033 356.3333 0035342 257.4625 102.2607 14.38822166676514

Acompanhe FENGYUN 1C DEB em tempo real com AllMySat

Download on the App Store